N5ZPR Weather Reports


Display with metric or nautical units.
time (UTC)temp
F
wind
direction
speed
MPH
gust
MPH
rain 1hr
in
rain 24hr
in
rain mn
in
humidity
%
barometer
mb
20260507130004 54 336 0.0 2.0 0.00 0.14 0.00 93 1018.3
20260507125004 54 336 0.0 2.0 0.00 0.14 0.00 93 1018.1
20260507123003 53 336 0.0 1.0 0.00 0.14 0.00 93 1018.1
20260507122004 52 336 0.0 2.0 0.00 0.14 0.00 93 1018.1
20260507121003 52 336 0.0 0.0 0.00 0.14 0.00 92 1018.1
20260507120004 52 336 0.0 0.0 0.00 0.14 0.00 92 1018.1
20260507115004 52 336 0.0 0.0 0.00 0.14 0.00 91 1017.3
20260507114003 53 336 0.0 0.0 0.00 0.14 0.00 91 1017.3
20260507113004 53 336 0.0 2.0 0.00 0.14 0.00 91 1017.3
20260507112004 53 336 1.0 3.0 0.00 0.14 0.00 91 1017.3
20260507111003 53 336 1.0 3.0 0.00 0.14 0.00 91 1017.3
20260507105003 53 336 2.0 3.0 0.00 0.14 0.00 91 1015.7
20260507104004 53 340 2.0 5.0 0.00 0.14 0.00 91 1015.7
20260507103003 53 342 1.0 5.0 0.00 0.14 0.00 90 1015.7
20260507102003 53 355 1.0 2.0 0.00 0.14 0.00 90 1015.7
20260507101004 53 355 1.0 2.0 0.00 0.14 0.00 90 1015.7
20260507100004 53 355 1.0 3.0 0.00 0.14 0.00 90 1015.7
20260507095003 53 30 0.0 2.0 0.00 0.14 0.00 90 1015.7
20260507094004 53 30 0.0 0.0 0.00 0.14 0.00 89 1015.7
20260507093003 54 30 0.0 1.0 0.00 0.14 0.00 88 1015.7
20260507092003 54 30 0.0 1.0 0.00 0.14 0.00 88 1015.8
20260507091004 55 30 1.0 2.0 0.00 0.14 0.00 88 1015.7
20260507090004 55 30 1.0 6.0 0.00 0.14 0.00 88 1015.7
20260507085003 55 21 2.0 7.0 0.00 0.14 0.00 87 1015.3
20260507084004 55 5 5.0 8.0 0.00 0.14 0.00 87 1015.3
20260507083003 55 7 4.0 6.0 0.00 0.14 0.00 86 1015.3
20260507082004 56 5 5.0 7.0 0.00 0.14 0.00 84 1015.4
20260507081003 56 37 5.0 8.0 0.00 0.14 0.00 84 1015.4
20260507080004 56 29 4.0 8.0 0.00 0.14 0.00 84 1015.4
20260507075003 56 36 5.0 8.0 0.00 0.14 0.00 85 1015.4
20260507074003 56 30 4.0 8.0 0.00 0.14 0.00 84 1014.9
20260507073004 57 27 5.0 8.0 0.00 0.14 0.00 84 1014.9
20260507072004 57 40 3.0 10.0 0.00 0.14 0.00 83 1014.6
20260507071003 57 48 9.0 12.0 0.00 0.14 0.00 83 1014.6
20260507070008 57 45 5.0 12.0 0.00 0.14 0.00 83 1014.8
20260507065004 57 35 5.0 9.0 0.00 0.14 0.00 83 1014.8
20260507064003 58 59 5.0 10.0 0.00 0.14 0.00 82 1014.8
20260507063003 58 27 5.0 12.0 0.00 0.14 0.00 82 1014.8
20260507062003 58 51 5.0 12.0 0.00 0.14 0.00 82 1014.6
20260507061003 58 34 5.0 9.0 0.00 0.14 0.00 82 1014.6
20260507060003 59 35 2.0 6.0 0.00 0.14 0.00 82 1014.6
20260507055003 59 42 4.0 7.0 0.00 0.14 0.00 82 1014.6
20260507054003 59 35 3.0 8.0 0.00 0.14 0.00 82 1014.6
20260507053004 59 49 5.0 8.0 0.00 0.14 0.00 81 1014.5
20260507052004 59 37 4.0 10.0 0.00 0.14 0.00 80 1014.6
20260507051003 59 47 6.0 10.0 0.00 0.14 0.00 80 1014.8
20260507050003 59 33 6.0 12.0 0.00 0.14 0.00 80 1014.8
20260507045003 59 43 6.0 13.0 0.00 0.14 0.14 79 1014.8
20260507043003 59 30 6.0 12.0 0.00 0.14 0.14 81 1014.8
20260507042003 59 35 4.0 6.0 0.00 0.14 0.14 85 1014.4
20260507040003 60 30 4.0 9.0 0.00 0.14 0.14 83 1014.4
20260507035003 60 33 4.0 9.0 0.00 0.14 0.14 83 1014.4
20260507034004 60 43 5.0 8.0 0.00 0.14 0.14 83 1014.4
20260507033004 60 36 3.0 8.0 0.00 0.14 0.14 84 1014.4
20260507032003 60 39 3.0 7.0 0.00 0.14 0.14 85 1014.4
20260507031004 60 38 5.0 8.0 0.00 0.14 0.14 85 1014.4
20260507030004 60 38 4.0 7.0 0.00 0.14 0.14 86 1014.4
20260507024003 60 51 2.0 7.0 0.00 0.14 0.14 85 1014.2
20260507023004 60 55 3.0 7.0 0.00 0.14 0.14 86 1013.0
20260507022004 60 41 3.0 7.0 0.00 0.14 0.14 86 1013.0
20260507021003 60 41 4.0 6.0 0.00 0.14 0.14 86 1013.0
20260507020003 60 24 4.0 7.0 0.00 0.14 0.14 87 1013.0
20260507015003 60 59 4.0 7.0 0.00 0.14 0.14 87 1013.0
20260507014004 60 34 3.0 6.0 0.00 0.14 0.14 87 1012.3
20260507013004 60 28 3.0 6.0 0.00 0.14 0.14 88 1012.3
20260507012004 60 24 4.0 8.0 0.00 0.14 0.14 87 1012.3
20260507010004 60 25 5.0 6.0 0.00 0.14 0.14 87 1012.1
20260507005004 60 29 1.0 5.0 0.00 0.14 0.14 87 1012.1
20260507004003 60 27 2.0 5.0 0.00 0.14 0.14 88 1012.1
20260507003004 60 25 2.0 6.0 0.00 0.14 0.14 87 1012.0
20260507002004 60 30 4.0 6.0 0.00 0.14 0.14 87 1012.0
20260507001004 60 24 1.0 3.0 0.00 0.14 0.14 87 1011.6
20260507000003 60 24 3.0 5.0 0.00 0.14 0.14 88 1011.6
20260506235003 60 37 2.0 5.0 0.02 0.14 0.14 88 1011.6
20260506233003 59 24 3.0 8.0 0.02 0.14 0.14 88 1011.5
20260506232004 59 36 5.0 6.0 0.02 0.14 0.14 87 1011.5
20260506230003 60 18 6.0 9.0 0.02 0.14 0.14 85 1011.5
20260506225003 60 1 7.0 9.0 0.00 0.12 0.12 82 1011.5
20260506223004 61 329 8.0 12.0 0.00 0.12 0.12 76 1011.1
20260506222003 62 15 9.0 12.0 0.00 0.12 0.12 76 1011.1
20260506221004 62 6 7.0 12.0 0.00 0.12 0.12 76 1011.2
20260506220004 61 22 8.0 12.0 0.00 0.12 0.12 77 1011.2
20260506215004 61 13 9.0 12.0 0.00 0.12 0.12 76 1011.2
20260506214003 61 315 5.0 12.0 0.00 0.12 0.12 76 1011.9
20260506213003 61 351 7.0 9.0 0.00 0.12 0.12 76 1011.9
20260506212003 61 0 8.0 12.0 0.00 0.12 0.12 76 1011.9
20260506211004 61 356 7.0 12.0 0.00 0.12 0.12 77 1011.9
20260506210003 61 12 7.0 12.0 0.00 0.12 0.12 76 1011.9
20260506203003 60 341 7.0 12.0 0.00 0.12 0.12 78 1011.9
20260506201004 59 343 5.0 12.0 0.00 0.12 0.12 81 1011.1
20260506200004 59 354 7.0 10.0 0.00 0.12 0.12 80 1011.1
20260506195003 59 19 8.0 13.0 0.00 0.12 0.12 80 1011.1
20260506194004 59 10 6.0 13.0 0.00 0.12 0.12 80 1011.1
20260506192003 58 350 7.0 10.0 0.00 0.12 0.12 82 1011.1
20260506191004 57 4 7.0 10.0 0.00 0.12 0.12 83 1011.1
20260506190004 57 19 2.0 8.0 0.00 0.12 0.12 84 1011.1
20260506185003 56 349 4.0 9.0 0.00 0.12 0.12 84 1011.1
20260506183003 56 359 4.0 9.0 0.00 0.12 0.12 84 1011.1
20260506182003 56 8 5.0 12.0 0.00 0.12 0.12 84 1011.1
20260506181003 57 0 7.0 15.0 0.00 0.12 0.12 84 1011.1
20260506180005 57 24 12.0 21.0 0.00 0.12 0.12 85 1011.1
20260506175003 56 20 13.0 21.0 0.00 0.12 0.12 87 1011.4
20260506174004 55 353 10.0 20.0 0.00 0.12 0.12 88 1011.7
20260506173003 55 6 9.0 15.0 0.00 0.12 0.12 88 1012.4
20260506172003 55 358 10.0 15.0 0.00 0.12 0.12 89 1012.4
20260506170003 55 39 8.0 13.0 0.00 0.12 0.12 89 1012.4
20260506164004 54 2 10.0 16.0 0.00 0.12 0.12 89 1012.1
20260506163004 54 14 9.0 16.0 0.00 0.12 0.12 89 1012.1
20260506162004 54 1 9.0 15.0 0.00 0.12 0.12 90 1012.1
20260506161003 55 17 7.0 12.0 0.01 0.12 0.12 90 1012.1
20260506160003 54 30 9.0 12.0 0.02 0.12 0.12 91 1012.1
20260506155004 54 342 7.0 10.0 0.12 0.12 0.12 91 1012.1
20260506154004 53 332 4.0 12.0 0.12 0.12 0.12 91 1013.7
20260506153003 53 26 8.0 13.0 0.12 0.12 0.12 91 1013.7
20260506152003 53 324 6.0 13.0 0.12 0.12 0.12 91 1013.7
20260506151003 53 299 3.0 13.0 0.11 0.11 0.11 89 1013.7
20260506150003 53 3 9.0 12.0 0.10 0.10 0.10 86 1013.7
20260506145003 54 344 5.0 9.0 0.00 0.00 0.00 85 1012.2
20260506144004 54 334 4.0 9.0 0.00 0.00 0.00 84 1012.2
20260506143003 53 207 2.0 21.0 0.00 0.00 0.00 84 1012.2
20260506142004 54 358 8.0 15.0 0.00 0.00 0.00 84 1012.2
20260506141003 54 347 6.0 16.0 0.00 0.00 0.00 84 1012.2
20260506140004 54 339 9.0 12.0 0.00 0.00 0.00 83 1012.2
20260506135003 54 344 6.0 12.0 0.00 0.00 0.00 82 1010.0
20260506134004 54 354 8.0 12.0 0.00 0.00 0.00 82 1010.0
20260506133004 54 351 10.0 16.0 0.00 0.00 0.00 81 1010.0